Year,Month,Day,Hour,Minute,Value (Times are PST for temperature in C)
2012,10,02,00,00,10.90
2012,10,02,00,01,10.90
2012,10,02,00,02,10.80
2012,10,02,00,03,10.80
2012,10,02,00,04,10.80
2012,10,02,00,05,10.80
2012,10,02,00,06,10.80
2012,10,02,00,07,10.80
2012,10,02,00,08,10.80
2012,10,02,00,09,10.80
2012,10,02,00,10,10.70
2012,10,02,00,11,10.70
2012,10,02,00,12,10.70
2012,10,02,00,13,10.70
2012,10,02,00,14,10.60
2012,10,02,00,15,10.60
2012,10,02,00,16,10.60
2012,10,02,00,17,10.60
2012,10,02,00,18,10.60
2012,10,02,00,19,10.60
2012,10,02,00,20,10.60
2012,10,02,00,21,10.60
2012,10,02,00,22,10.60
2012,10,02,00,23,10.60
2012,10,02,00,24,10.60
2012,10,02,00,25,10.60
2012,10,02,00,26,10.60
2012,10,02,00,27,10.60
2012,10,02,00,28,10.60
2012,10,02,00,29,10.60
2012,10,02,00,30,10.50
2012,10,02,00,31,10.50
2012,10,02,00,32,10.40
2012,10,02,00,33,10.40
2012,10,02,00,34,10.40
2012,10,02,00,35,10.40
2012,10,02,00,36,10.40
2012,10,02,00,37,10.40
2012,10,02,00,38,10.40
2012,10,02,00,39,10.40
2012,10,02,00,40,10.40
2012,10,02,00,41,10.40
2012,10,02,00,42,10.40
2012,10,02,00,43,10.30
2012,10,02,00,44,10.30
2012,10,02,00,45,10.30
2012,10,02,00,46,10.30
2012,10,02,00,47,10.30
2012,10,02,00,48,10.20
2012,10,02,00,49,10.20
2012,10,02,00,50,10.20
2012,10,02,00,51,10.20
2012,10,02,00,52,10.20
2012,10,02,00,53,10.10
2012,10,02,00,54,10.00
2012,10,02,00,55,10.00
2012,10,02,00,56,10.00
2012,10,02,00,57,10.00
2012,10,02,00,58,10.00
2012,10,02,00,59,9.90
2012,10,02,01,00,9.90
2012,10,02,01,01,9.90
2012,10,02,01,02,9.80
2012,10,02,01,03,9.80
2012,10,02,01,04,9.80
2012,10,02,01,05,9.80
2012,10,02,01,06,9.80
2012,10,02,01,07,9.80
2012,10,02,01,08,9.80
2012,10,02,01,09,9.80
2012,10,02,01,10,9.80
2012,10,02,01,11,9.80
2012,10,02,01,12,9.80
2012,10,02,01,13,9.80
2012,10,02,01,14,9.90
2012,10,02,01,15,9.90
2012,10,02,01,16,9.90
2012,10,02,01,17,9.90
2012,10,02,01,18,9.80
2012,10,02,01,19,9.80
2012,10,02,01,20,9.80
2012,10,02,01,21,9.80
2012,10,02,01,22,9.80
2012,10,02,01,23,9.70
2012,10,02,01,24,9.70
2012,10,02,01,25,9.60
2012,10,02,01,26,9.60
2012,10,02,01,27,9.50
2012,10,02,01,28,9.50
2012,10,02,01,29,9.40
2012,10,02,01,30,9.30
2012,10,02,01,31,9.30
2012,10,02,01,32,9.20
2012,10,02,01,33,9.20
2012,10,02,01,34,9.10
2012,10,02,01,35,9.10
2012,10,02,01,36,9.00
2012,10,02,01,37,9.00
2012,10,02,01,38,8.90
2012,10,02,01,39,8.90
2012,10,02,01,40,8.80
2012,10,02,01,41,8.80
2012,10,02,01,42,8.70
2012,10,02,01,43,8.70
2012,10,02,01,44,8.60
2012,10,02,01,45,8.60
2012,10,02,01,46,8.50
2012,10,02,01,47,8.40
2012,10,02,01,48,8.40
2012,10,02,01,49,8.30
2012,10,02,01,50,8.30
2012,10,02,01,51,8.30
2012,10,02,01,52,8.30
2012,10,02,01,53,8.30
2012,10,02,01,54,8.30
2012,10,02,01,55,8.20
2012,10,02,01,56,8.20
2012,10,02,01,57,8.20
2012,10,02,01,58,8.20
2012,10,02,01,59,8.20
2012,10,02,02,00,8.20
2012,10,02,02,01,8.20
2012,10,02,02,02,8.20
2012,10,02,02,03,8.10
2012,10,02,02,04,8.10
2012,10,02,02,05,8.10
2012,10,02,02,06,8.00
2012,10,02,02,07,8.00
2012,10,02,02,08,7.90
2012,10,02,02,09,7.90
2012,10,02,02,10,7.90
2012,10,02,02,11,7.80
2012,10,02,02,12,7.80
2012,10,02,02,13,7.80
2012,10,02,02,14,7.70
2012,10,02,02,15,7.70
2012,10,02,02,16,7.70
2012,10,02,02,17,7.60
2012,10,02,02,18,7.60
2012,10,02,02,19,7.60
2012,10,02,02,20,7.50
2012,10,02,02,21,7.50
2012,10,02,02,22,7.50
2012,10,02,02,23,7.50
2012,10,02,02,24,7.50
2012,10,02,02,25,7.50
2012,10,02,02,26,7.50
2012,10,02,02,27,7.60
2012,10,02,02,28,7.60
2012,10,02,02,29,7.60
2012,10,02,02,30,7.60
2012,10,02,02,31,7.60
2012,10,02,02,32,7.60
2012,10,02,02,33,7.50
2012,10,02,02,34,7.50
2012,10,02,02,35,7.50
2012,10,02,02,36,7.40
2012,10,02,02,37,7.40
2012,10,02,02,38,7.40
2012,10,02,02,39,7.30
2012,10,02,02,40,7.30
2012,10,02,02,41,7.20
2012,10,02,02,42,7.20
2012,10,02,02,43,7.20
2012,10,02,02,44,7.10
2012,10,02,02,45,7.10
2012,10,02,02,46,7.10
2012,10,02,02,47,7.00
2012,10,02,02,48,7.00
2012,10,02,02,49,7.00
2012,10,02,02,50,7.00
2012,10,02,02,51,6.90
2012,10,02,02,52,6.90
2012,10,02,02,53,6.90
2012,10,02,02,54,6.90
2012,10,02,02,55,6.90
2012,10,02,02,56,6.90
2012,10,02,02,57,6.90
2012,10,02,02,58,6.80
2012,10,02,02,59,6.80
2012,10,02,03,00,6.80
2012,10,02,03,01,6.80
2012,10,02,03,02,6.80
2012,10,02,03,03,6.70
2012,10,02,03,04,6.70
2012,10,02,03,05,6.70
2012,10,02,03,06,6.70
2012,10,02,03,07,6.70
2012,10,02,03,08,6.70
2012,10,02,03,09,6.70
2012,10,02,03,10,6.70
2012,10,02,03,11,6.70
2012,10,02,03,12,6.70
2012,10,02,03,13,6.70
2012,10,02,03,14,6.70
2012,10,02,03,15,6.70
2012,10,02,03,16,6.70
2012,10,02,03,17,6.70
2012,10,02,03,18,6.60
2012,10,02,03,19,6.60
2012,10,02,03,20,6.50
2012,10,02,03,21,6.50
2012,10,02,03,22,6.40
2012,10,02,03,23,6.40
2012,10,02,03,24,6.40
2012,10,02,03,25,6.50
2012,10,02,03,26,6.40
2012,10,02,03,27,6.40
2012,10,02,03,28,6.40
2012,10,02,03,29,6.40
2012,10,02,03,30,6.40
2012,10,02,03,31,6.30
2012,10,02,03,32,6.30
2012,10,02,03,33,6.30
2012,10,02,03,34,6.30
2012,10,02,03,35,6.30
2012,10,02,03,36,6.30
2012,10,02,03,37,6.30
2012,10,02,03,38,6.30
2012,10,02,03,39,6.30
2012,10,02,03,40,6.30
2012,10,02,03,41,6.30
2012,10,02,03,42,6.20
2012,10,02,03,43,6.20
2012,10,02,03,44,6.20
2012,10,02,03,45,6.20
2012,10,02,03,46,6.20
2012,10,02,03,47,6.10
2012,10,02,03,48,6.10
2012,10,02,03,49,6.10
2012,10,02,03,50,6.20
2012,10,02,03,51,6.20
2012,10,02,03,52,6.20
2012,10,02,03,53,6.20
2012,10,02,03,54,6.20
2012,10,02,03,55,6.20
2012,10,02,03,56,6.20
2012,10,02,03,57,6.20
2012,10,02,03,58,6.20
2012,10,02,03,59,6.20
2012,10,02,04,00,6.20
2012,10,02,04,01,6.30
2012,10,02,04,02,6.30
2012,10,02,04,03,6.30
2012,10,02,04,04,6.30
2012,10,02,04,05,6.40
2012,10,02,04,06,6.40
2012,10,02,04,07,6.40
2012,10,02,04,08,6.40
2012,10,02,04,09,6.40
2012,10,02,04,10,6.40
2012,10,02,04,11,6.40
2012,10,02,04,12,6.40
2012,10,02,04,13,6.40
2012,10,02,04,14,6.40
2012,10,02,04,15,6.40
2012,10,02,04,16,6.40
2012,10,02,04,17,6.40
2012,10,02,04,18,6.40
2012,10,02,04,19,6.30
2012,10,02,04,20,6.30
2012,10,02,04,21,6.30
2012,10,02,04,22,6.20
2012,10,02,04,23,6.20
2012,10,02,04,24,6.10
2012,10,02,04,25,6.10
2012,10,02,04,26,6.10
2012,10,02,04,27,6.00
2012,10,02,04,28,6.00
2012,10,02,04,29,6.00
2012,10,02,04,30,6.00
2012,10,02,04,31,6.00
2012,10,02,04,32,6.00
2012,10,02,04,33,6.00
2012,10,02,04,34,6.00
2012,10,02,04,35,6.00
2012,10,02,04,36,6.00
2012,10,02,04,37,6.00
2012,10,02,04,38,6.00
2012,10,02,04,39,6.00
2012,10,02,04,40,5.90
2012,10,02,04,41,5.90
2012,10,02,04,42,5.80
2012,10,02,04,43,5.80
2012,10,02,04,44,5.80
2012,10,02,04,45,5.70
2012,10,02,04,46,5.70
2012,10,02,04,47,5.70
2012,10,02,04,48,5.60
2012,10,02,04,49,5.60
2012,10,02,04,50,5.50
2012,10,02,04,51,5.50
2012,10,02,04,52,5.40
2012,10,02,04,53,5.40
2012,10,02,04,54,5.40
2012,10,02,04,55,5.30
2012,10,02,04,56,5.30
2012,10,02,04,57,5.30
2012,10,02,04,58,5.30
2012,10,02,04,59,5.30
2012,10,02,05,00,5.30
2012,10,02,05,01,5.30
2012,10,02,05,02,5.30
2012,10,02,05,03,5.30
2012,10,02,05,04,5.30
2012,10,02,05,05,5.30
2012,10,02,05,06,5.30
2012,10,02,05,07,5.30
2012,10,02,05,08,5.30
2012,10,02,05,09,5.30
2012,10,02,05,10,5.30
2012,10,02,05,11,5.30
2012,10,02,05,12,5.30
2012,10,02,05,13,5.30
2012,10,02,05,14,5.30
2012,10,02,05,15,5.40
2012,10,02,05,16,5.40
2012,10,02,05,17,5.40
2012,10,02,05,18,5.40
2012,10,02,05,19,5.40
2012,10,02,05,20,5.40
2012,10,02,05,21,5.40
2012,10,02,05,22,5.40
2012,10,02,05,23,5.30
2012,10,02,05,24,5.30
2012,10,02,05,25,5.30
2012,10,02,05,26,5.30
2012,10,02,05,27,5.30
2012,10,02,05,28,5.20
2012,10,02,05,29,5.20
2012,10,02,05,30,5.20
2012,10,02,05,31,5.20
2012,10,02,05,32,5.20
2012,10,02,05,33,5.30
2012,10,02,05,34,5.30
2012,10,02,05,35,5.30
2012,10,02,05,36,5.30
2012,10,02,05,37,5.20
2012,10,02,05,38,5.20
2012,10,02,05,39,5.20
2012,10,02,05,40,5.20
2012,10,02,05,41,5.20
2012,10,02,05,42,5.20
2012,10,02,05,43,5.20
2012,10,02,05,44,5.20
2012,10,02,05,45,5.20
2012,10,02,05,46,5.20
2012,10,02,05,47,5.30
2012,10,02,05,48,5.30
2012,10,02,05,49,5.30
2012,10,02,05,50,5.30
2012,10,02,05,51,5.30
2012,10,02,05,52,5.30
2012,10,02,05,53,5.30
2012,10,02,05,54,5.30
2012,10,02,05,55,5.40
2012,10,02,05,56,5.40
2012,10,02,05,57,5.40
2012,10,02,05,58,5.40
2012,10,02,05,59,5.40
2012,10,02,06,00,5.40
2012,10,02,06,01,5.40
2012,10,02,06,02,5.40
2012,10,02,06,03,5.30
2012,10,02,06,04,5.40
2012,10,02,06,05,5.40
2012,10,02,06,06,5.40
2012,10,02,06,07,5.40
2012,10,02,06,08,5.40
2012,10,02,06,09,5.40
2012,10,02,06,10,5.30
2012,10,02,06,11,5.30
2012,10,02,06,12,5.20
2012,10,02,06,13,5.10
2012,10,02,06,14,5.10
2012,10,02,06,15,5.10
2012,10,02,06,16,5.10
2012,10,02,06,17,5.00
2012,10,02,06,18,4.90
2012,10,02,06,19,4.90
2012,10,02,06,20,4.80
2012,10,02,06,21,4.80
2012,10,02,06,22,4.80
2012,10,02,06,23,4.70
2012,10,02,06,24,4.70
2012,10,02,06,25,4.70
2012,10,02,06,26,4.60
2012,10,02,06,27,4.60
2012,10,02,06,28,4.60
2012,10,02,06,29,4.60
2012,10,02,06,30,4.60
2012,10,02,06,31,4.60
2012,10,02,06,32,4.60
2012,10,02,06,33,4.60
2012,10,02,06,34,4.60
2012,10,02,06,35,4.60
2012,10,02,06,36,4.60
2012,10,02,06,37,4.60
2012,10,02,06,38,4.60
2012,10,02,06,39,4.70
2012,10,02,06,40,4.70
2012,10,02,06,41,4.60
2012,10,02,06,42,4.60
2012,10,02,06,43,4.60
2012,10,02,06,44,4.60
2012,10,02,06,45,4.60
2012,10,02,06,46,4.60
2012,10,02,06,47,4.60
2012,10,02,06,48,4.60
2012,10,02,06,49,4.60
2012,10,02,06,50,4.60
2012,10,02,06,51,4.60
2012,10,02,06,52,4.60
2012,10,02,06,53,4.50
2012,10,02,06,54,4.50
2012,10,02,06,55,4.50
2012,10,02,06,56,4.40
2012,10,02,06,57,4.40
2012,10,02,06,58,4.40
2012,10,02,06,59,4.40
2012,10,02,07,00,4.40
2012,10,02,07,01,4.50
2012,10,02,07,02,4.50
2012,10,02,07,03,4.60
2012,10,02,07,04,4.60
2012,10,02,07,05,4.60
2012,10,02,07,06,4.60
2012,10,02,07,07,4.50
2012,10,02,07,08,4.50
2012,10,02,07,09,4.40
2012,10,02,07,10,4.40
2012,10,02,07,11,4.40
2012,10,02,07,12,4.30
2012,10,02,07,13,4.30
2012,10,02,07,14,4.30
2012,10,02,07,15,4.30
2012,10,02,07,16,4.30
2012,10,02,07,17,4.30
2012,10,02,07,18,4.30
2012,10,02,07,19,4.30
2012,10,02,07,20,4.30
2012,10,02,07,21,4.30
2012,10,02,07,22,4.30
2012,10,02,07,23,4.30
2012,10,02,07,24,4.30
2012,10,02,07,25,4.30
2012,10,02,07,26,4.20
2012,10,02,07,27,4.20
2012,10,02,07,28,4.20
2012,10,02,07,29,4.20
2012,10,02,07,30,4.20
2012,10,02,07,31,4.30
2012,10,02,07,32,4.30
2012,10,02,07,33,4.30
2012,10,02,07,34,4.30
2012,10,02,07,35,4.30
2012,10,02,07,36,4.30
2012,10,02,07,37,4.30
2012,10,02,07,38,4.30
2012,10,02,07,39,4.30
2012,10,02,07,40,4.30
2012,10,02,07,41,4.30
2012,10,02,07,42,4.30
2012,10,02,07,43,4.30
2012,10,02,07,44,4.30
2012,10,02,07,45,4.30
2012,10,02,07,46,4.30
2012,10,02,07,47,4.30
2012,10,02,07,48,4.30
2012,10,02,07,49,4.30
2012,10,02,07,50,4.30
2012,10,02,07,51,4.30
2012,10,02,07,52,4.40
2012,10,02,07,53,4.40
2012,10,02,07,54,4.40
2012,10,02,07,55,4.40
2012,10,02,07,56,4.40
2012,10,02,07,57,4.40
2012,10,02,07,58,4.50
2012,10,02,07,59,4.50
2012,10,02,08,00,4.50
2012,10,02,08,01,4.50
2012,10,02,08,02,4.60
2012,10,02,08,03,4.60
2012,10,02,08,04,4.60
2012,10,02,08,05,4.70
2012,10,02,08,06,4.70
2012,10,02,08,07,4.70
2012,10,02,08,08,4.70
2012,10,02,08,09,4.80
2012,10,02,08,10,4.80
2012,10,02,08,11,4.80
2012,10,02,08,12,4.90
2012,10,02,08,13,4.90
2012,10,02,08,14,5.00
2012,10,02,08,15,5.00
2012,10,02,08,16,5.10
2012,10,02,08,17,5.10
2012,10,02,08,18,5.20
2012,10,02,08,19,5.20
2012,10,02,08,20,5.30
2012,10,02,08,21,5.30
2012,10,02,08,22,5.40
2012,10,02,08,23,5.40
2012,10,02,08,24,5.50
2012,10,02,08,25,5.60
2012,10,02,08,26,5.60
2012,10,02,08,27,5.70
2012,10,02,08,28,5.80
2012,10,02,08,29,5.90
2012,10,02,08,30,5.90
2012,10,02,08,31,6.00
2012,10,02,08,32,6.10
2012,10,02,08,33,6.20
2012,10,02,08,34,6.20
2012,10,02,08,35,6.30
2012,10,02,08,36,6.30
2012,10,02,08,37,6.40
2012,10,02,08,38,6.50
2012,10,02,08,39,6.60
2012,10,02,08,40,6.70
2012,10,02,08,41,6.70
2012,10,02,08,42,6.80
2012,10,02,08,43,6.90
2012,10,02,08,44,6.90
2012,10,02,08,45,7.00
2012,10,02,08,46,7.10
2012,10,02,08,47,7.20
2012,10,02,08,48,7.30
2012,10,02,08,49,7.40
2012,10,02,08,50,7.60
2012,10,02,08,51,7.70
2012,10,02,08,52,7.80
2012,10,02,08,53,7.90
2012,10,02,08,54,8.00
2012,10,02,08,55,8.20
2012,10,02,08,56,8.30
2012,10,02,08,57,8.40
2012,10,02,08,58,8.40
2012,10,02,08,59,8.50
2012,10,02,09,00,8.60
2012,10,02,09,01,8.70
2012,10,02,09,02,8.80
2012,10,02,09,03,8.80
2012,10,02,09,04,8.80
2012,10,02,09,05,8.80
2012,10,02,09,06,8.80
2012,10,02,09,07,8.80
2012,10,02,09,08,8.90
2012,10,02,09,09,8.90
2012,10,02,09,10,8.90
2012,10,02,09,11,8.90
2012,10,02,09,12,9.00
2012,10,02,09,13,9.00
2012,10,02,09,14,9.10
2012,10,02,09,15,9.20
2012,10,02,09,16,9.30
2012,10,02,09,17,9.40
2012,10,02,09,18,9.40
2012,10,02,09,19,9.50
2012,10,02,09,20,9.60
2012,10,02,09,21,9.70
2012,10,02,09,22,9.80
2012,10,02,09,23,9.80
2012,10,02,09,24,9.90
2012,10,02,09,25,10.00
2012,10,02,09,26,10.00
2012,10,02,09,27,10.10
2012,10,02,09,28,10.20
2012,10,02,09,29,10.20
2012,10,02,09,30,10.30
2012,10,02,09,31,10.30
2012,10,02,09,32,10.40
2012,10,02,09,33,10.40
2012,10,02,09,34,10.40
2012,10,02,09,35,10.40
2012,10,02,09,36,10.50
2012,10,02,09,37,10.50
2012,10,02,09,38,10.50
2012,10,02,09,39,10.60
2012,10,02,09,40,10.60
2012,10,02,09,41,10.60
2012,10,02,09,42,10.60
2012,10,02,09,43,10.60
2012,10,02,09,44,10.60
2012,10,02,09,45,10.60
2012,10,02,09,46,10.60
2012,10,02,09,47,10.60
2012,10,02,09,48,10.50
2012,10,02,09,49,10.50
2012,10,02,09,50,10.50
2012,10,02,09,51,10.50
2012,10,02,09,52,10.50
2012,10,02,09,53,10.50
2012,10,02,09,54,10.40
2012,10,02,09,55,10.40
2012,10,02,09,56,10.40
2012,10,02,09,57,10.50
2012,10,02,09,58,10.50
2012,10,02,09,59,10.50
2012,10,02,10,00,10.50
2012,10,02,10,01,10.50
2012,10,02,10,02,10.50
2012,10,02,10,03,10.50
2012,10,02,10,04,10.40
2012,10,02,10,05,10.40
2012,10,02,10,06,10.40
2012,10,02,10,07,10.40
2012,10,02,10,08,10.40
2012,10,02,10,09,10.40
2012,10,02,10,10,10.40
2012,10,02,10,11,10.40
2012,10,02,10,12,10.40
2012,10,02,10,13,10.50
2012,10,02,10,14,10.50
2012,10,02,10,15,10.50
2012,10,02,10,16,10.50
2012,10,02,10,17,10.50
2012,10,02,10,18,10.50
2012,10,02,10,19,10.50
2012,10,02,10,20,10.60
2012,10,02,10,21,10.60
2012,10,02,10,22,10.60
2012,10,02,10,23,10.60
2012,10,02,10,24,10.60
2012,10,02,10,25,10.70
2012,10,02,10,26,10.70
2012,10,02,10,27,10.70
2012,10,02,10,28,10.70
2012,10,02,10,29,10.70
2012,10,02,10,30,10.80
2012,10,02,10,31,10.80
2012,10,02,10,32,10.80
2012,10,02,10,33,10.80
2012,10,02,10,34,10.80
2012,10,02,10,35,10.80
2012,10,02,10,36,10.90
2012,10,02,10,37,10.90
2012,10,02,10,38,10.90
2012,10,02,10,39,10.90
2012,10,02,10,40,10.90
2012,10,02,10,41,10.90
2012,10,02,10,42,10.90
2012,10,02,10,43,10.90
2012,10,02,10,44,10.90
2012,10,02,10,45,11.00
2012,10,02,10,46,11.00
2012,10,02,10,47,11.00
2012,10,02,10,48,11.00
2012,10,02,10,49,11.10
2012,10,02,10,50,11.10
2012,10,02,10,51,11.10
2012,10,02,10,52,11.20
2012,10,02,10,53,11.20
2012,10,02,10,54,11.20
2012,10,02,10,55,11.20
2012,10,02,10,56,11.30
2012,10,02,10,57,11.30
2012,10,02,10,58,11.30
2012,10,02,10,59,11.30
2012,10,02,11,00,11.30
2012,10,02,11,01,11.30
2012,10,02,11,02,11.30
2012,10,02,11,03,11.30
2012,10,02,11,04,11.30
2012,10,02,11,05,11.30
2012,10,02,11,06,11.30
2012,10,02,11,07,11.20
2012,10,02,11,08,11.20
2012,10,02,11,09,11.20
2012,10,02,11,10,11.20
2012,10,02,11,11,11.30
2012,10,02,11,12,11.30
2012,10,02,11,13,11.30
2012,10,02,11,14,11.30
2012,10,02,11,15,11.30
2012,10,02,11,16,11.40
2012,10,02,11,17,11.40
2012,10,02,11,18,11.40
2012,10,02,11,19,11.40
2012,10,02,11,20,11.40
2012,10,02,11,21,11.40
2012,10,02,11,22,11.40
2012,10,02,11,23,11.40
2012,10,02,11,24,11.40
2012,10,02,11,25,11.40
2012,10,02,11,26,11.40
2012,10,02,11,27,11.40
2012,10,02,11,28,11.40
2012,10,02,11,29,11.40
2012,10,02,11,30,11.50
2012,10,02,11,31,11.50
2012,10,02,11,32,11.60
2012,10,02,11,33,11.60
2012,10,02,11,34,11.60
2012,10,02,11,35,11.70
2012,10,02,11,36,11.70
2012,10,02,11,37,11.70
2012,10,02,11,38,11.70
2012,10,02,11,39,11.70
2012,10,02,11,40,11.70
2012,10,02,11,41,11.70
2012,10,02,11,42,11.80
2012,10,02,11,43,11.80
2012,10,02,11,44,11.80
2012,10,02,11,45,11.80
2012,10,02,11,46,11.80
2012,10,02,11,47,11.80
2012,10,02,11,48,11.80
2012,10,02,11,49,11.80
2012,10,02,11,50,11.80
2012,10,02,11,51,11.80
2012,10,02,11,52,11.80
2012,10,02,11,53,11.80
2012,10,02,11,54,11.90
2012,10,02,11,55,11.90
2012,10,02,11,56,11.90
2012,10,02,11,57,11.90
2012,10,02,11,58,11.90
2012,10,02,11,59,11.80
2012,10,02,12,00,11.80
2012,10,02,12,01,11.80
2012,10,02,12,02,11.80
2012,10,02,12,03,11.80
2012,10,02,12,04,11.90
2012,10,02,12,05,12.00
2012,10,02,12,06,12.00
2012,10,02,12,07,12.10
2012,10,02,12,08,12.10
2012,10,02,12,09,12.10
2012,10,02,12,10,12.10
2012,10,02,12,11,12.20
2012,10,02,12,12,12.20
2012,10,02,12,13,12.20
2012,10,02,12,14,12.20
2012,10,02,12,15,12.30
2012,10,02,12,16,12.30
2012,10,02,12,17,12.30
2012,10,02,12,18,12.30
2012,10,02,12,19,12.30
2012,10,02,12,20,12.30
2012,10,02,12,21,12.30
2012,10,02,12,22,12.30
2012,10,02,12,23,12.30
2012,10,02,12,24,12.30
2012,10,02,12,25,12.30
2012,10,02,12,26,12.30
2012,10,02,12,27,12.30
2012,10,02,12,28,12.40
2012,10,02,12,29,12.40
2012,10,02,12,30,12.40
2012,10,02,12,31,12.40
2012,10,02,12,32,12.50
2012,10,02,12,33,12.50
2012,10,02,12,34,12.50
2012,10,02,12,35,12.40
2012,10,02,12,36,12.40
2012,10,02,12,37,12.40
2012,10,02,12,38,12.40
2012,10,02,12,39,12.50
2012,10,02,12,40,12.50
2012,10,02,12,41,12.60
2012,10,02,12,42,12.60
2012,10,02,12,43,12.60
2012,10,02,12,44,12.60
2012,10,02,12,45,12.60
2012,10,02,12,46,12.70
2012,10,02,12,47,12.70
2012,10,02,12,48,12.80
2012,10,02,12,49,12.80
2012,10,02,12,50,12.80
2012,10,02,12,51,12.80
2012,10,02,12,52,12.90
2012,10,02,12,53,12.90
2012,10,02,12,54,12.90
2012,10,02,12,55,12.90
2012,10,02,12,56,13.00
2012,10,02,12,57,13.10
2012,10,02,12,58,13.20
2012,10,02,12,59,13.20
2012,10,02,13,00,13.30
2012,10,02,13,01,13.30
2012,10,02,13,02,13.30
2012,10,02,13,03,13.20
2012,10,02,13,04,13.20
2012,10,02,13,05,13.20
2012,10,02,13,06,13.20
2012,10,02,13,07,13.20
2012,10,02,13,08,13.20
2012,10,02,13,09,13.20
2012,10,02,13,10,13.30
2012,10,02,13,11,13.30
2012,10,02,13,12,13.20
2012,10,02,13,13,13.20
2012,10,02,13,14,13.20
2012,10,02,13,15,13.20
2012,10,02,13,16,13.20
2012,10,02,13,17,13.30
2012,10,02,13,18,13.30
2012,10,02,13,19,13.40
2012,10,02,13,20,13.40
2012,10,02,13,21,13.50
2012,10,02,13,22,13.50
2012,10,02,13,23,13.50
2012,10,02,13,24,13.50
2012,10,02,13,25,13.50
2012,10,02,13,26,13.50
2012,10,02,13,27,13.50
2012,10,02,13,28,13.50
2012,10,02,13,29,13.50
2012,10,02,13,30,13.50
2012,10,02,13,31,13.50
2012,10,02,13,32,13.50
2012,10,02,13,33,13.50
2012,10,02,13,34,13.40
2012,10,02,13,35,13.40
2012,10,02,13,36,13.40
2012,10,02,13,37,13.40
2012,10,02,13,38,13.40
2012,10,02,13,39,13.40
2012,10,02,13,40,13.40
2012,10,02,13,41,13.40
2012,10,02,13,42,13.50
2012,10,02,13,43,13.50
2012,10,02,13,44,13.60
2012,10,02,13,45,13.60
2012,10,02,13,46,13.70
2012,10,02,13,47,13.70
2012,10,02,13,48,13.70
2012,10,02,13,49,13.80
2012,10,02,13,50,13.80
2012,10,02,13,51,13.70
2012,10,02,13,52,13.70
2012,10,02,13,53,13.70
2012,10,02,13,54,13.70
2012,10,02,13,55,13.60
2012,10,02,13,56,13.60
2012,10,02,13,57,13.60
2012,10,02,13,58,13.60
2012,10,02,13,59,13.70
2012,10,02,14,00,13.70
2012,10,02,14,01,13.80
2012,10,02,14,02,13.90
2012,10,02,14,03,13.90
2012,10,02,14,04,13.90
2012,10,02,14,05,13.80
2012,10,02,14,06,13.80
2012,10,02,14,07,13.90
2012,10,02,14,08,13.90
2012,10,02,14,09,13.90
2012,10,02,14,10,13.90
2012,10,02,14,11,14.00
2012,10,02,14,12,14.00
2012,10,02,14,13,14.00
2012,10,02,14,14,14.00
2012,10,02,14,15,14.00
2012,10,02,14,16,14.10
2012,10,02,14,17,14.20
2012,10,02,14,18,14.20
2012,10,02,14,19,14.20
2012,10,02,14,20,14.30
2012,10,02,14,21,14.30
2012,10,02,14,22,14.30
2012,10,02,14,23,14.30
2012,10,02,14,24,14.40
2012,10,02,14,25,14.40
2012,10,02,14,26,14.50
2012,10,02,14,27,14.50
2012,10,02,14,28,14.50
2012,10,02,14,29,14.40
2012,10,02,14,30,14.40
2012,10,02,14,31,14.40
2012,10,02,14,32,14.40
2012,10,02,14,33,14.40
2012,10,02,14,34,14.40
2012,10,02,14,35,14.50
2012,10,02,14,36,14.50
2012,10,02,14,37,14.50
2012,10,02,14,38,14.50
2012,10,02,14,39,14.50
2012,10,02,14,40,14.40
2012,10,02,14,41,14.40
2012,10,02,14,42,14.50
2012,10,02,14,43,14.50
2012,10,02,14,44,14.60
2012,10,02,14,45,14.60
2012,10,02,14,46,14.60
2012,10,02,14,47,14.60
2012,10,02,14,48,14.70
2012,10,02,14,49,14.70
2012,10,02,14,50,14.70
2012,10,02,14,51,14.80
2012,10,02,14,52,14.80
2012,10,02,14,53,14.80
2012,10,02,14,54,14.80
2012,10,02,14,55,14.80
2012,10,02,14,56,14.80
2012,10,02,14,57,14.80
2012,10,02,14,58,14.70
2012,10,02,14,59,14.60
2012,10,02,15,00,14.60
2012,10,02,15,01,14.50
2012,10,02,15,02,14.50
2012,10,02,15,03,14.50
2012,10,02,15,04,14.50
2012,10,02,15,05,14.60
2012,10,02,15,06,14.60
2012,10,02,15,07,14.60
2012,10,02,15,08,14.60
2012,10,02,15,09,14.60
2012,10,02,15,10,14.60
2012,10,02,15,11,14.60
2012,10,02,15,12,14.60
2012,10,02,15,13,14.60
2012,10,02,15,14,14.50
2012,10,02,15,15,14.40
2012,10,02,15,16,14.50
2012,10,02,15,17,14.50
2012,10,02,15,18,14.60
2012,10,02,15,19,14.60
2012,10,02,15,20,14.60
2012,10,02,15,21,14.60
2012,10,02,15,22,14.60
2012,10,02,15,23,14.60
2012,10,02,15,24,14.60
2012,10,02,15,25,14.60
2012,10,02,15,26,14.60
2012,10,02,15,27,14.60
2012,10,02,15,28,14.70
2012,10,02,15,29,14.70
2012,10,02,15,30,14.80
2012,10,02,15,31,14.80
2012,10,02,15,32,14.80
2012,10,02,15,33,14.90
2012,10,02,15,34,14.90
2012,10,02,15,35,14.90
2012,10,02,15,36,15.00
2012,10,02,15,37,15.00
2012,10,02,15,38,15.00
2012,10,02,15,39,15.00
2012,10,02,15,40,15.10
2012,10,02,15,41,15.10
2012,10,02,15,42,15.10
2012,10,02,15,43,15.20
2012,10,02,15,44,15.10
2012,10,02,15,45,15.10
2012,10,02,15,46,15.20
2012,10,02,15,47,15.20
2012,10,02,15,48,15.20
2012,10,02,15,49,15.20
2012,10,02,15,50,15.20
2012,10,02,15,51,15.20
2012,10,02,15,52,15.20
2012,10,02,15,53,15.20
2012,10,02,15,54,15.20
2012,10,02,15,55,15.20
2012,10,02,15,56,15.20
2012,10,02,15,57,15.20
2012,10,02,15,58,15.20
2012,10,02,15,59,15.30
2012,10,02,16,00,15.30
2012,10,02,16,01,15.30
2012,10,02,16,02,15.30
2012,10,02,16,03,15.30
2012,10,02,16,04,15.30
2012,10,02,16,05,15.20
2012,10,02,16,06,15.20
2012,10,02,16,07,15.20
2012,10,02,16,08,15.20
2012,10,02,16,09,15.20
2012,10,02,16,10,15.20
2012,10,02,16,11,15.20
2012,10,02,16,12,15.20
2012,10,02,16,13,15.20
2012,10,02,16,14,15.20
2012,10,02,16,15,15.20
2012,10,02,16,16,15.20
2012,10,02,16,17,15.10
2012,10,02,16,18,15.10
2012,10,02,16,19,15.10
2012,10,02,16,20,15.00
2012,10,02,16,21,15.00
2012,10,02,16,22,15.00
2012,10,02,16,23,15.00
2012,10,02,16,24,15.10
2012,10,02,16,25,15.10
2012,10,02,16,26,15.10
2012,10,02,16,27,15.10
2012,10,02,16,28,15.10
2012,10,02,16,29,15.10
2012,10,02,16,30,15.10
2012,10,02,16,31,15.10
2012,10,02,16,32,15.10
2012,10,02,16,33,15.10
2012,10,02,16,34,15.10
2012,10,02,16,35,15.10
2012,10,02,16,36,15.20
2012,10,02,16,37,15.20
2012,10,02,16,38,15.30
2012,10,02,16,39,15.30
2012,10,02,16,40,15.30
2012,10,02,16,41,15.20
2012,10,02,16,42,15.20
2012,10,02,16,43,15.10
2012,10,02,16,44,15.10
2012,10,02,16,45,15.10
2012,10,02,16,46,15.10
2012,10,02,16,47,15.10
2012,10,02,16,48,15.10
2012,10,02,16,49,15.00
2012,10,02,16,50,14.90
2012,10,02,16,51,14.80
2012,10,02,16,52,14.70
2012,10,02,16,53,14.50
2012,10,02,16,54,14.40
2012,10,02,16,55,14.30
2012,10,02,16,56,14.20
2012,10,02,16,57,14.10
2012,10,02,16,58,14.00
2012,10,02,16,59,14.00
2012,10,02,17,00,13.90
2012,10,02,17,01,13.90
2012,10,02,17,02,13.90
2012,10,02,17,03,13.90
2012,10,02,17,04,13.90
2012,10,02,17,05,14.00
2012,10,02,17,06,14.00
2012,10,02,17,07,14.10
2012,10,02,17,08,14.10
2012,10,02,17,09,14.10
2012,10,02,17,10,14.10
2012,10,02,17,11,14.10
2012,10,02,17,12,14.00
2012,10,02,17,13,14.00
2012,10,02,17,14,13.90
2012,10,02,17,15,13.90
2012,10,02,17,16,13.90
2012,10,02,17,17,13.90
2012,10,02,17,18,13.90
2012,10,02,17,19,13.90
2012,10,02,17,20,13.90
2012,10,02,17,21,13.90
2012,10,02,17,22,13.90
2012,10,02,17,23,13.90
2012,10,02,17,24,13.90
2012,10,02,17,25,13.90
2012,10,02,17,26,13.90
2012,10,02,17,27,13.90
2012,10,02,17,28,13.90
2012,10,02,17,29,13.90
2012,10,02,17,30,13.90
2012,10,02,17,31,14.00
2012,10,02,17,32,14.00
2012,10,02,17,33,14.10
2012,10,02,17,34,14.10
2012,10,02,17,35,14.10
2012,10,02,17,36,14.10
2012,10,02,17,37,14.10
2012,10,02,17,38,14.20
2012,10,02,17,39,14.20
2012,10,02,17,40,14.20
2012,10,02,17,41,14.20